[[{"header":{"parameterUnit":"m.s-1","parameterCategory":1,"la1":30.2991,"la2":30.254,"lo1":-89.0895,"lo2":-89.0444,"dy":0.0017,"dx":0.0017,"nx":28,"ny":28,"refTime":"2024-05-29T09:00:00:Z","depth":0,"parameterNumber":2,"parameterNumberName":"U-component_of_WINDS"},"data":[0,0,0,0,0,0,0,0,0,0,0,0,0,0,0,0,0,0,0,0,0,0,0,0,0,0,0,0,0,0,0,0,0,0,0,0,0,0,0,0,0,0,0,0,0,0,0,0,0,0,0,0,0,0,0,0,0,0,0.228,0.228,0,0.2324,0.2325,0.2325,0.2347,0.2347,0.2347,0.2347,0.239,0.2391,0.2393,0,0,0,0,0,0,0,0,0,0,0,0,0,0.2209,0.221,0.228,0.228,0.2281,0.2324,0.2325,0.2326,0.2347,0.2347,0.2347,0.2347,0.239,0.2391,0.2393,0,0,0,0,0,0,0,0,0,0,0,0,0,0.2245,0.2211,0.228,0.2297,0.2299,0.2324,0.2325,0.2326,0.2347,0.2347,0.2347,0.2347,0.239,0.2391,0.2393,0.2404,0,0,0.2398,0.2399,0,0,0,0,0,0,0,0,0.2243,0.2248,0.2294,0.2296,0.2298,0.233,0.2316,0.2352,0.2347,0.2329,0.2347,0.2347,0.237,0.2374,0.2382,0.2406,0.2407,0.2398,0.2399,0.24,0.2401,0,0,0,0,0,0,0,0.2241,0.2246,0.2297,0.2294,0.2297,0.2301,0.2306,0.2323,0.2349,0.233,0.2332,0.2337,0.2371,0.238,0.2383,0.2408,0.2398,0.24,0.2401,0.2402,0.2442,0.2442,0,0,0,0,0,0,0.2236,0.2244,0.2296,0.2299,0.227,0.2302,0.2308,0.232,0.2349,0.2353,0.2337,0.2338,0.2377,0.2381,0.2385,0.2399,0.24,0.2402,0.2403,0.2442,0.2442,0.2442,0,0,0,0,0,0,0.2234,0.224,0.2294,0.2272,0.2279,0.2304,0.2317,0.2321,0.233,0.2354,0.2358,0.2342,0.2377,0.2382,0.2399,0.24,0.2402,0.2404,0.2442,0.2442,0.2442,0.2427,0,0,0,0,0,0,0.2232,0.224,0.2245,0.2272,0.228,0.2308,0.2317,0.2322,0.2333,0.2335,0.2359,0.2363,0.2378,0.2396,0.24,0.2403,0.2405,0.2441,0.2442,0.2442,0.2427,0.2426,0.2425,0,0,0,0,0,0.223,0.2239,0.2245,0.2251,0.2287,0.2309,0.2313,0.233,0.2333,0.2338,0.2353,0.2363,0.2399,0.2397,0.2403,0.2405,0.2441,0.2442,0.2442,0.2427,0.2426,0.2425,0,0,0,0,0,0,0.221,0.2242,0.225,0.2268,0.2286,0.2312,0.2319,0.2329,0.2345,0.2346,0.2365,0.2371,0.2385,0.2397,0.2394,0.2417,0.2421,0.2422,0.2409,0.2408,0.2407,0.2404,0.2407,0,0,0,0,0,0.2208,0.2224,0.2251,0.2264,0.2272,0.2294,0.2304,0.2316,0.2334,0.2341,0.2358,0.2374,0.239,0.2399,0.2415,0.2429,0.2434,0.2433,0.2432,0.2431,0.2432,0.2439,0.2439,0.2442,0.2442,0.2442,0,0,0.2204,0.2224,0.2232,0.2261,0.2275,0.229,0.23,0.2315,0.2326,0.2343,0.236,0.2373,0.2392,0.2407,0.2415,0.2418,0.2432,0.2431,0.2431,0.2432,0.2439,0.2439,0.2439,0.2442,0.2442,0.2442,0,0,0.2204,0.2221,0.2233,0.2248,0.2271,0.2285,0.2288,0.2313,0.2322,0.2339,0.2352,0.2364,0.2391,0.2404,0.2414,0.2418,0.2427,0.2422,0.2418,0.2424,0.2424,0.2424,0.2425,0.2425,0.2423,0.2423,0.2423,0,0.2196,0.222,0.2238,0.2253,0.2264,0.2281,0.2293,0.2306,0.2332,0.2339,0.2342,0.2375,0.2389,0.2407,0.2408,0.2416,0.2419,0.242,0.2423,0.2423,0.2423,0.2424,0.2424,0.2422,0.2422,0.2422,0.2422,0,0.2208,0.2224,0.2231,0.2257,0.2269,0.2282,0.2302,0.2312,0.2322,0.2335,0.2352,0.2369,0.2388,0.2393,0.2403,0.2412,0.2414,0.2419,0.2424,0.2422,0.2423,0.2424,0.2421,0.2421,0.2421,0.2421,0,0,0.2198,0.2233,0.2235,0.2247,0.2272,0.2285,0.2298,0.2317,0.2325,0.2342,0.2352,0.2374,0.2379,0.239,0.2402,0.2408,0.2409,0.2413,0.2414,0.2411,0.2419,0.2414,0.2415,0.2415,0.2415,0.2415,0.2417,0,0.2201,0.2227,0.2244,0.2262,0.2277,0.2292,0.2304,0.232,0.2332,0.2345,0.2359,0.2373,0.2379,0.2386,0.2393,0.2407,0.241,0.2407,0.2424,0.2424,0.2419,0.2415,0.2411,0.2412,0.2418,0.2418,0.2418,0,0.2209,0.2226,0.2246,0.227,0.2276,0.2286,0.2305,0.2317,0.2335,0.2344,0.2356,0.2368,0.2381,0.2384,0.2402,0.2399,0.2407,0.2415,0.2415,0.2418,0.2421,0.2417,0.2413,0.2413,0.2419,0.2419,0.2419,0,0.2199,0.2227,0.2243,0.2252,0.228,0.2286,0.2298,0.2316,0.2326,0.2342,0.2348,0.2365,0.2374,0.2386,0.2401,0.2402,0.2417,0.2421,0.2423,0.2423,0.2426,0.2426,0.2423,0.2431,0.2431,0.2431,0.2431,0,0.2201,0.2213,0.2239,0.2248,0.2261,0.228,0.2292,0.2304,0.232,0.2331,0.2345,0.2355,0.2374,0.2386,0.2398,0.2411,0.2415,0.2421,0.2424,0.242,0.2419,0.2425,0.2425,0.2431,0.2431,0.2431,0.2431,0,0.2193,0.2211,0.2229,0.2253,0.226,0.2268,0.2288,0.2297,0.231,0.2324,0.2329,0.2349,0.2363,0.2379,0.2399,0.2407,0.2419,0.2423,0.2413,0.2415,0.2416,0.2415,0.2417,0.2418,0.2425,0.2425,0.2425,0,0.2193,0.2203,0.2228,0.2237,0.2249,0.2263,0.2273,0.2291,0.2301,0.2322,0.2328,0.2344,0.2358,0.238,0.2396,0.2411,0.2415,0.2415,0.2418,0.2413,0.2415,0.2414,0.2415,0.2414,0.2414,0.2414,0.2414,0,0.2192,0.22,0.2215,0.2233,0.2245,0.226,0.2275,0.2281,0.2302,0.2312,0.2328,0.2338,0.2359,0.2374,0.2391,0.2401,0.241,0.2412,0.2414,0.2409,0.2403,0.2406,0.2411,0.2412,0.2412,0.2413,0.2413,0.2413,0.2187,0.2196,0.2215,0.2232,0.2245,0.2258,0.2268,0.2282,0.2296,0.2314,0.2323,0.2339,0.2355,0.2379,0.2389,0.24,0.2403,0.2405,0.2405,0.2405,0.2404,0.2401,0.2403,0.2403,0.2403,0.2403,0.2403,0,0.2186,0.2199,0.2214,0.2235,0.2247,0.2255,0.2272,0.2281,0.2295,0.231,0.2323,0.234,0.2355,0.2371,0.2387,0.2392,0.2397,0.2396,0.2395,0.2398,0.2401,0.2398,0.2392,0.2392,0.2392,0.2392,0.2392,0.2392,0.2187,0.2202,0.2213,0.2234,0.2246,0.2262,0.2271,0.2283,0.2295,0.2314,0.2326,0.2337,0.2352,0.2368,0.2382,0.2386,0.2391,0.2388,0.2394,0.2397,0.2397,0.2398,0.2396,0.2389,0.2389,0.239,0.239,0.239]},{"header":{"parameterUnit":"m.s-1","parameterCategory":1,"la1":30.2991,"la2":30.254,"lo1":-89.0895,"lo2":-89.0444,"dy":0.0017,"dx":0.0017,"nx":28,"ny":28,"refTime":"2024-05-29T09:00:00:Z","depth":0,"parameterNumber":3,"parameterNumberName":"V-component_of_WINDS"},"data":[0,0,0,0,0,0,0,0,0,0,0,0,0,0,0,0,0,0,0,0,0,0,0,0,0,0,0,0,0,0,0,0,0,0,0,0,0,0,0,0,0,0,0,0,0,0,0,0,0,0,0,0,0,0,0,0,0,0,2.2712,2.2712,0,2.2683,2.2682,2.2682,2.2615,2.2614,2.2612,2.2611,2.2582,2.2582,2.2582,0,0,0,0,0,0,0,0,0,0,0,0,0,2.2711,2.2711,2.2712,2.2712,2.2711,2.2683,2.2682,2.2682,2.2615,2.2614,2.2612,2.261,2.2581,2.2582,2.2583,0,0,0,0,0,0,0,0,0,0,0,0,0,2.27,2.2712,2.2712,2.2675,2.2671,2.2683,2.2682,2.2682,2.2616,2.2614,2.2611,2.261,2.2581,2.2582,2.2583,2.2629,0,0,2.2585,2.2585,0,0,0,0,0,0,0,0,2.27,2.27,2.2681,2.2677,2.2673,2.265,2.2671,2.2664,2.2616,2.2637,2.2611,2.2609,2.2606,2.2605,2.2604,2.2627,2.2626,2.2585,2.2585,2.2586,2.2586,0,0,0,0,0,0,0,2.2701,2.2701,2.27,2.268,2.2676,2.2659,2.2655,2.2669,2.2633,2.2635,2.263,2.2627,2.2604,2.2603,2.2603,2.2626,2.2585,2.2586,2.2586,2.2586,2.2684,2.2686,0,0,0,0,0,0,2.2707,2.2702,2.2701,2.27,2.2682,2.2661,2.2657,2.266,2.2633,2.2627,2.2629,2.2624,2.2603,2.2602,2.2601,2.2652,2.2586,2.2586,2.2587,2.2682,2.2685,2.2687,0,0,0,0,0,0,2.2708,2.2708,2.2703,2.2699,2.2697,2.2663,2.2667,2.266,2.266,2.2629,2.2622,2.2635,2.2601,2.26,2.2622,2.265,2.2587,2.2587,2.2679,2.2683,2.2686,2.2755,0,0,0,0,0,0,2.2708,2.2709,2.2726,2.27,2.2698,2.2724,2.2669,2.2661,2.2661,2.2654,2.2633,2.2627,2.26,2.2621,2.2623,2.265,2.2588,2.2677,2.2681,2.2685,2.275,2.2761,2.2769,0,0,0,0,0,2.2708,2.2747,2.2727,2.2727,2.2718,2.2726,2.2724,2.2692,2.2664,2.268,2.266,2.2628,2.2647,2.2624,2.2625,2.2653,2.2675,2.268,2.2684,2.2746,2.2759,2.2769,0,0,0,0,0,0,2.2777,2.2743,2.272,2.2752,2.2742,2.2714,2.2735,2.2706,2.2705,2.2698,2.2658,2.2654,2.2681,2.2669,2.2644,2.2696,2.2656,2.2661,2.2702,2.2714,2.2723,2.2725,2.2589,0,0,0,0,0,2.2796,2.2805,2.2774,2.2805,2.2801,2.2769,2.2771,2.2747,2.2735,2.2731,2.2712,2.2703,2.2706,2.271,2.2711,2.2749,2.2742,2.2769,2.2778,2.2786,2.2791,2.2808,2.2819,2.2703,2.2703,2.2703,0,0,2.2835,2.2817,2.2825,2.2819,2.2808,2.2818,2.2766,2.2779,2.2785,2.2733,2.2752,2.2738,2.2724,2.2754,2.2766,2.2745,2.2822,2.2792,2.2799,2.2799,2.2815,2.2826,2.2836,2.2706,2.2705,2.2705,0,0,2.2911,2.2899,2.2923,2.2913,2.2898,2.2876,2.2882,2.2858,2.2847,2.2865,2.2826,2.2833,2.2841,2.2832,2.2829,2.2901,2.287,2.2903,2.2952,2.297,2.2979,2.2987,2.3011,2.3021,2.2908,2.2908,2.2908,0,2.2961,2.2974,2.2939,2.2953,2.2951,2.2904,2.2927,2.292,2.2906,2.2906,2.2883,2.289,2.2878,2.2904,2.2922,2.2921,2.2926,2.2905,2.298,2.2988,2.2995,2.3018,2.3027,2.2912,2.2912,2.2911,2.2911,0,2.3037,2.3046,2.3067,2.3054,2.3055,2.3074,2.3041,2.3046,2.3022,2.3002,2.3021,2.3005,2.3002,2.3006,2.2983,2.3029,2.3016,2.2988,2.2946,2.3011,2.3031,2.304,2.2918,2.2916,2.2915,2.2914,0,0,2.3155,2.3122,2.313,2.3123,2.3102,2.3109,2.3126,2.3123,2.3127,2.3119,2.3132,2.3139,2.3112,2.3108,2.3084,2.31,2.3156,2.3068,2.3067,2.3084,2.3205,2.3226,2.3237,2.3136,2.3138,2.3139,2.3205,0,2.3225,2.3251,2.322,2.3253,2.3261,2.3216,2.323,2.3219,2.3202,2.3206,2.3186,2.3192,2.3156,2.3153,2.3167,2.3147,2.318,2.3142,2.3147,2.3148,2.3151,2.3248,2.327,2.3334,2.3214,2.3215,2.3216,0,2.331,2.3306,2.334,2.3316,2.3318,2.3332,2.3326,2.333,2.3317,2.3303,2.3298,2.3269,2.3283,2.3244,2.3263,2.3238,2.3238,2.3229,2.323,2.3229,2.3185,2.3248,2.3353,2.3363,2.3229,2.3228,2.3227,0,2.3391,2.3394,2.3414,2.341,2.3383,2.3394,2.3383,2.3368,2.3367,2.3362,2.3361,2.3359,2.3357,2.3355,2.3325,2.3299,2.3348,2.3306,2.3336,2.3337,2.3347,2.3347,2.3453,2.335,2.335,2.3349,2.3349,0,2.3472,2.3495,2.345,2.3463,2.3486,2.345,2.3474,2.3459,2.3445,2.3454,2.3415,2.3424,2.3384,2.3389,2.3365,2.3384,2.3384,2.3373,2.3366,2.3376,2.3377,2.3375,2.3369,2.3352,2.3351,2.3351,2.335,0,2.3567,2.3538,2.3557,2.353,2.3524,2.3542,2.3519,2.3529,2.3509,2.352,2.3521,2.3489,2.3492,2.3462,2.346,2.3444,2.3474,2.346,2.3478,2.3474,2.3505,2.3502,2.3613,2.3625,2.3515,2.3516,2.3517,0,2.362,2.3636,2.3611,2.3613,2.3604,2.361,2.3609,2.3573,2.3574,2.356,2.3572,2.3572,2.3569,2.3577,2.3553,2.3551,2.3537,2.3575,2.3536,2.3545,2.3536,2.3535,2.3536,2.3584,2.3585,2.3586,2.3587,0,2.3717,2.3702,2.3702,2.3698,2.3698,2.3693,2.3685,2.3689,2.3651,2.3654,2.3656,2.3655,2.3652,2.3652,2.3645,2.3634,2.3604,2.36,2.3606,2.3616,2.3625,2.3619,2.35,2.3597,2.3596,2.3595,2.3595,2.3594,2.3792,2.3803,2.3787,2.3788,2.3779,2.3772,2.378,2.3761,2.3762,2.3757,2.3736,2.3742,2.3727,2.3715,2.3706,2.3711,2.3692,2.3702,2.3704,2.3707,2.3712,2.3625,2.3709,2.3709,2.3709,2.3708,2.3708,0,2.3886,2.3873,2.3875,2.3864,2.3866,2.3837,2.3827,2.383,2.3835,2.3824,2.3823,2.3825,2.3825,2.3802,2.3799,2.3806,2.3792,2.3807,2.3805,2.3803,2.3729,2.3724,2.3818,2.3818,2.3818,2.3818,2.3818,2.3818,2.3935,2.3952,2.3935,2.3948,2.3935,2.394,2.3936,2.393,2.3921,2.3925,2.3925,2.3909,2.3893,2.3888,2.3887,2.388,2.388,2.3899,2.3887,2.3819,2.3808,2.3798,2.3792,2.3899,2.3899,2.396,2.396,2.3961]}]]